Location: Go?cza
(50.3372°N, 19.9313°E)
Time: 00:13:49
(UTC+00:00)

Cosmos 2360 Rocket - Pass Details

Date: 23 May 2024
Orbit: 832 x 846 km, 71.0° (Epoch: 18 June)

Event Time Altitude Azimuth Distance (km) Brightness Sun altitude
Rises 00:14:06 0° 332° (NNW) 3,416 5.9 -15.9°
Reaches altitude 10° 00:16:37 10° 337° (NNW) 2,479 5.2 -15.7°
Maximum altitude 00:22:11 53° 54° (NE) 1,033 3.0 -15.3°
Drops below altitude 10° 00:27:44 10° 131° (SE) 2,465 4.5 -14.9°
Sets 00:30:14 0° 136° (SE) 3,395 5.2 -14.7°
